DW4933 Weather Reports


time (UTC)temp
C
wind
direction
speed
KPH
gust
KPH
rain 1hr
cm
rain 24hr
cm
rain mn
cm
humidity
%
barometer
mb
20260504081600 4 262 0.0 0.0 0.00 0.00 0.00 77 1011.5
20260504044532 6 262 0.0 0.0 0.00 0.00 0.00 72 1011.5
20260504043026 7 262 0.0 0.0 0.00 0.00 0.00 70 1011.6
20260504041520 7 262 0.0 0.0 0.00 0.00 0.00 69 1011.6
20260504040017 8 262 0.0 0.0 0.00 0.00 0.00 67 1011.5
20260504034516 8 262 0.0 0.0 0.00 0.00 0.00 65 1011.6
20260504033016 8 262 0.0 0.0 0.00 0.00 0.00 64 1011.8
20260504031515 9 262 0.0 0.0 0.00 0.00 0.00 61 1011.7
20260504030015 10 262 0.0 0.0 0.00 0.00 0.00 59 1011.7
20260504024513 10 262 0.0 0.0 0.00 0.00 0.00 56 1011.8
20260504023013 10 262 0.0 0.0 0.00 0.00 0.00 55 1011.9
20260504021512 10 262 0.0 0.0 0.00 0.00 0.00 54 1012.0
20260504020011 10 262 0.0 0.0 0.00 0.00 0.00 52 1011.9
20260504014515 10 262 0.0 0.0 0.00 0.00 0.00 52 1011.8
20260504013014 11 262 0.0 0.0 0.00 0.00 0.00 49 1011.7
20260504011510 11 262 0.0 0.0 0.00 0.00 0.00 45 1011.6
20260504010010 11 262 0.0 0.0 0.00 0.00 0.00 44 1011.4
20260504004509 12 265 0.0 0.0 0.00 0.00 0.00 43 1011.3
20260504003008 12 262 0.0 0.0 0.00 0.00 0.00 44 1011.1
20260504001508 12 273 0.0 0.0 0.00 0.00 0.00 44 1010.9
20260504000018 11 274 0.0 0.0 0.00 0.00 0.00 47 1010.7
20260503234507 12 274 0.0 0.0 0.00 0.00 0.00 43 1010.7
20260503233006 12 245 0.0 0.0 0.00 0.00 0.00 40 1010.6
20260503231506 12 269 0.0 0.0 0.00 0.00 0.00 39 1010.6
20260503230006 12 250 0.0 0.0 0.00 0.00 0.00 40 1010.6
20260503224505 13 90 0.0 0.0 0.00 0.00 0.00 39 1010.7
20260503223005 13 277 0.0 0.0 0.00 0.00 0.00 39 1010.7
20260503221501 14 288 0.0 0.0 0.00 0.00 0.00 38 1010.9
20260503220106 13 271 0.0 0.0 0.00 0.00 0.00 39 1011.0
20260503214559 13 248 0.0 0.0 0.00 0.00 0.00 38 1011.1
20260503213057 13 278 0.0 0.0 0.00 0.00 0.00 40 1011.2
20260503211556 13 288 0.0 0.0 0.00 0.00 0.00 40 1011.2
20260503210058 12 108 0.0 0.0 0.00 0.00 0.00 41 1011.4
20260503204607 12 124 0.0 0.0 0.00 0.00 0.00 39 1011.2
20260503203100 13 115 0.0 1.6 0.00 0.00 0.00 37 1011.2
20260503201555 13 300 0.0 0.0 0.00 0.00 0.00 34 1011.1
20260503200053 13 307 0.0 0.0 0.00 0.00 0.00 34 1011.0
20260503194607 13 21 0.0 0.0 0.00 0.00 0.00 33 1011.3
20260503193050 13 248 0.0 0.0 0.00 0.00 0.00 32 1011.4
20260503191549 13 293 0.0 0.0 0.00 0.00 0.00 32 1011.5
20260503190057 14 39 0.0 0.0 0.00 0.00 0.00 31 1011.7
20260503184544 13 12 0.0 0.0 0.00 0.00 0.00 32 1011.8
20260503183050 13 264 0.0 0.0 0.00 0.00 0.00 32 1012.2
20260503181539 12 245 0.0 0.0 0.00 0.00 0.00 33 1012.4
20260503180035 12 114 0.0 0.0 0.00 0.00 0.00 34 1012.5
20260503174533 12 103 0.0 0.0 0.00 0.00 0.00 37 1012.7
20260503173046 12 246 0.0 0.0 0.00 0.00 0.00 34 1013.1
20260503171528 11 91 0.0 0.0 0.00 0.00 0.00 33 1013.1
20260503130110 7 113 0.0 0.0 0.00 0.00 0.00 53 1014.4